{"data":{"norad_id":63246,"epoch":"2026-09-19T22:57:54.424224Z","epoch_age_seconds":65087,"freshness":"FRESH","line1":"1 63246U 25052AN  26262.95687991  .00001895  00000+0  16704-3 0  9990","line2":"2 63246  97.6675 153.2556 0002673 274.2937  85.7979 14.97620401 82854","mean_motion":14.97620401,"eccentricity":0.0002673,"inclination_deg":97.6675,"raan_deg":153.2556,"arg_perigee_deg":274.2937,"mean_anomaly_deg":85.7979,"bstar":0.00016704,"rev_number":8285,"period_min":96.152536319516,"perigee_km":572.39276036837,"apogee_km":576.10950706465,"semimajor_km":6952.3881337165,"source":"CELESTRAK","updated_at":"2026-09-20T09:00:34.874120Z"}}